Location: Buckeye Ditch
(40.9104°N, 122.9517°W)
Time: 13:04:15
(UTC+00:00)

Tiros 1 despin weight - Visible Passes

Search period start: 18 May 2025 00:00
Search period end: 28 May 2025 00:00
Orbit: 563 x 602 km, 48.2° (Epoch: 17 May)

Date Brightness Start Highest point End Pass type
(mag) Time Alt. Az. Time Alt. Az. Time Alt. Az.
18 May ? 09:44:44 12° ESE 09:44:44 12° ESE 09:45:37 10° E visible
18 May ? 11:21:02 25° SW 11:23:30 73° SSE 11:27:57 10° ENE visible
19 May ? 09:49:13 20° ESE 09:49:13 20° ESE 09:51:29 10° E visible
19 May ? 11:25:31 21° WSW 11:28:25 78° NNW 11:32:53 10° ENE visible
20 May ? 09:53:39 32° ESE 09:53:39 32° ESE 09:56:47 10° ENE visible
20 May ? 11:29:57 16° W 11:33:24 56° NNW 11:37:48 10° ENE visible
21 May ? 09:58:01 53° ESE 09:58:01 53° ESE 10:01:53 10° ENE visible
21 May ? 11:34:18 11° W 11:38:26 43° NNW 11:42:42 10° NE visible
22 May ? 10:02:20 85° S 10:02:22 85° SSE 10:06:50 10° ENE visible
22 May ? 11:39:23 10° W 11:43:29 36° NNW 11:47:38 10° ENE visible
23 May ? 08:30:18 11° E 08:30:18 11° E 08:30:30 10° E visible
23 May ? 10:06:35 56° WNW 10:07:17 68° NNW 10:11:43 10° ENE visible
23 May ? 11:44:34 10° WNW 11:48:35 32° N 11:52:37 10° ENE visible
24 May ? 08:34:30 17° ENE 08:34:30 17° ENE 08:35:41 10° ENE visible
24 May ? 10:10:46 34° WNW 10:12:15 50° NNW 10:16:35 10° NE visible
24 May ? 11:49:42 10° WNW 11:53:41 31° N 11:57:41 10° ENE visible
25 May ? 08:38:38 26° ENE 08:38:38 26° ENE 08:40:40 10° ENE visible
25 May ? 10:14:54 22° WNW 10:17:15 40° NNW 10:21:28 10° NE visible
25 May ? 11:54:46 10° WNW 11:58:46 32° N 12:02:48 10° ENE visible
26 May ? 08:42:42 39° NE 08:42:42 39° NE 08:45:33 10° ENE visible
26 May ? 10:18:59 14° WNW 10:22:19 34° N 10:26:23 10° ENE visible
26 May ? 11:59:44 10° WNW 12:03:50 35° N 12:07:57 10° ENE visible
27 May ? 08:46:41 52° NNE 08:46:41 52° NNE 08:50:23 10° ENE visible
27 May ? 10:23:25 10° WNW 10:27:22 32° N 10:31:22 10° ENE visible
27 May ? 12:04:37 10° NW 12:08:51 42° NNE 12:13:05 10° E visible
